Weather Roundup
Issued by NWS Chicago, IL

Home | Current Version | Previous Version | Text Only | Print | Product List | Glossary Off
Versions: 1 2 3 4 5 6 7 8 9 10 11 12 13 14 15 16 17 18 19 20 21 22 23 24 25 26 27 28 29 30 31 32 33 34 35 36 37 38 39 40 41 42 43 44 45 46 47 48 49 50

000
NZUS59 KLOT 051110
HRRLOT

CHICAGO AREA WEATHER ROUNDUP
NATIONAL WEATHER SERVICE CHICAGO/ROMEOVILLE IL
500 AM CST THU MAR 05 2015

NOTE: "FAIR" INDICATES FEW OR NO CLOUDS BELOW 12,000 FEET WITH NO
SIGNIFICANT WEATHER AND/OR OBSTRUCTIONS TO VISIBILITY.

* THESE STATIONS ARE NOT UNDER NWS QUALITY CONTROL. THEY ALSO MAY NOT
  REPORT WEATHER SUCH AS PRECIPITATION OR FOG.

ILZ005-006-012>014-019>023-051200-
NORTHEAST ILLINOIS

CITY           SKY/WX    TMP DP  RH WIND       PRES   REMARKS
OHARE          PTCLDY     6  -8  52 N10       30.37R WCI  -9
MIDWAY         MOCLDY    11  -6  46 N9        30.38R WCI  -2
AURORA         PTCLDY    -1  -8  72 NW5       30.39R WCI -11
LANSING*       MOCLDY    12   0  57 NW8       30.37R WCI   1
JOLIET*        MOCLDY     6  -2  67 CALM      30.41R
WAUKEGAN       PTCLDY     0 -10  63 NW5       30.36S WCI -10
DUPAGE AIRPORT PTCLDY     4  -6  63 N7        30.37R WCI  -8
WHEELING       PTCLDY     4  -7  60 NW7       30.39R WCI  -8
KANKAKEE*      MOCLDY     9   1  71 W7        30.39R WCI  -2
MORRIS*        MOCLDY     4  -3  75 NW5       30.40R WCI  -6
LEWIS AIRPORT* MOCLDY     7  -4  62 CALM      30.39R
NORTHERLY IS     N/A     13   1  59 NW7         N/A  WCI   3
$$

WIZ051-052-058>065-066-070>072-051200-
SOUTHEAST WISCONSIN

CITY           SKY/WX    TMP DP  RH WIND       PRES   REMARKS
MILWAUKEE      PTCLDY     5 -10  50 NW8       30.38R WCI  -8
KENOSHA*       CLEAR     -6 -14  68 NW6       30.37R WCI -19
RACINE*        CLEAR      3 -10  54 NW7       30.39R WCI  -9
BURLINGTON     CLEAR    -10 -17  69 NW5       30.38R WCI -21
WEST BEND      CLEAR      0 -11  60 NW5       30.37R WCI -10
$$

INZ001>003-010>013-019-020-051200-
NORTHWEST INDIANA

CITY           SKY/WX    TMP DP  RH WIND       PRES   REMARKS
GARY*          CLOUDY    18   1  49 NW9       30.37R WCI   6
MICHIGAN CITY* NOT AVBL
RENSSELAER*    NOT AVBL
VALPARAISO     PTCLDY    13   2  61 N6        30.33R WCI   4
$$

LMZ740>746-051200-
SOUTHERN LAKE MICHIGAN

STATION/POSITION TIME  SKY/WX   TEMP WIND        PRES    VSBY
                                AIR  DIR/SP/G
                 (UTC)          (F)  (DEG/KT/KT) (MB)    (MI)
HARRISON CRIB    1100            13  330/ 14/ 22   N/A
BURNHAM HARBOR   1100            13  310/  9/ 10   N/A
CALUMET HARBOR   1100            13  280/  5/  8 1027.0R
BURNS HARBOR     NOT AVBL
MICHIGAN CITY    1100            16  330/ 12/ 14   N/A
$$

ABBREVIATIONS USED IN REMARKS
   TC - TEMPERATURE IN CELSIUS
  WCI - WIND CHILL INDEX
   HX - HEAT INDEX
  VSB - VISIBILITY
$$


USA.gov is the U.S. government's official web portal to all federal, state and local government web resources and services.